Meteopurmerend
purmerend
Purmerend - Baaienwijk



My webcam  My webcam


Onweer radar Meer informatie blitzortung!


Regen radar Meer informatie rain snow radar


Bezoek onze andere website:

CandyAppleRed WebdesignWebdesign Purmerend Candy Apple Red

MeteopurmerendBlog

Template documentation
and downloads



Het weer levert geen direct gevaar op.    Er zijn geen waarschuwingen afgegeven.

15 daagse weersverwachting Manchester (GB)

  • Overzicht
  • Per uur
  • 15 dagen
  • Extra
  • Vergelijk
  • Kaarten
  • Dagkaart
  • Meer »
  • Info
  • Statistieken
  • Directe link
    Temp 6h Neerslag Wind  
 05:21     21:11    Daglengte: 15:50 Vandaag
07:00
15°
10.5 mm
4
13:00
17°
11.9 mm
4
19:00
15°
28.9 mm
5
 05:23     21:09    Daglengte: 15:46 Morgen
01:00
13°
33.3 mm
4
07:00
13°
5.5 mm
5
13:00
15°
 
7
19:00
16°
6.2 mm
5
 05:24     21:08    Daglengte: 15:44 Vrijdag 30 Jul
01:00
14°
 
2
07:00
13°
41.4 mm
1
13:00
16°
64.6 mm
3
19:00
17°
65.6 mm
3
 05:26     21:06    Daglengte: 15:40 Zaterdag 31 Jul
01:00
15°
63.0 mm
2
Locatie info
Region: England
Latitude: 53.4796°N
Longitude: -2.2487°E
51 masl
Postcode: M3 3
Temp/Neerslag /Baro Onweer/Dauwpunt
    Temp Baro 1h Neerslag Dauwpunt Wind UV Bewolking  
 05:21     21:11    Daglengte: 15:50 Vandaag
05:00
15°
1004.3 hPa 2.8 mm
82%
13.4°
3
Windvlaag: 2.6 m/s
86%
06:00
15°
1004.1 hPa 2.2 mm
82%
13.1°
4
Windvlaag: 3.8 m/s
77%
07:00
15°
1004.1 hPa 1.6 mm
82%
13.0°
4
Windvlaag: 2.8 m/s
58%
08:00
15°
1004.2 hPa
76%
12.7°
4
Windvlaag: 2.7 m/s
52%
09:00
15°
1004.3 hPa
78%
12.1°
5
Windvlaag: 3.6 m/s
70%
10:00
16°
1004.2 hPa 1.6 mm
77%
11.0°
5
Windvlaag: 3.9 m/s
71%
11:00
16°
1003.9 hPa 3.1 mm
80%
8.8°
5
Windvlaag: 4.2 m/s
65%
12:00
17°
1003.4 hPa 3.2 mm
82%
7.8°
4
Windvlaag: 4.1 m/s
76%
13:00
17°
1003.3 hPa 4.0 mm
82%
6.8°
4
Windvlaag: 4.9 m/s
83%
14:00
17°
1003.1 hPa 4.0 mm
82%
8.5°
4
Windvlaag: 4.7 m/s
75% warningclass
15:00
17°
1002.7 hPa 3.6 mm
82%
10.5°
4
Windvlaag: 4.2 m/s
69%
16:00
16°
1002.6 hPa 4.9 mm
82%
10.1°
4
Windvlaag: 2.6 m/s
75% warningclass
17:00
16°
1002.7 hPa 5.0 mm
80%
10.2°
4
Windvlaag: 2.2 m/s
78% warningclass
18:00
15°
1002.8 hPa 6.1 mm
80%
9.8°
5
Windvlaag: 2.5 m/s
85% warningclass
19:00
15°
1002.9 hPa 5.2 mm
79%
9.5°
5
Windvlaag: 3.7 m/s
81%
20:00
14°
1003.0 hPa 5.4 mm
77%
9.3°
4
Windvlaag: 3.8 m/s
78%
21:00
14°
1003.2 hPa 5.4 mm
75%
9.7°
3
Windvlaag: 4 m/s
80%
22:00
13°
1003.2 hPa 5.7 mm
73%
9.9°
3
Windvlaag: 4.4 m/s
84%
23:00
13°
1003.2 hPa 5.8 mm
64%
10.4°
4
Windvlaag: 6.5 m/s
64%
 05:23     21:09    Daglengte: 15:46 Morgen
00:00
13°
1003.2 hPa 5.4 mm
71%
11.4°
5
Windvlaag: 6.4 m/s
67%
01:00
13°
1003.3 hPa 5.6 mm
74%
11.8°
4
Windvlaag: 5.5 m/s
75%
02:00
13°
1003.5 hPa 5.5 mm
77%
12.1°
4
Windvlaag: 4.7 m/s
35%
03:00
13°
1003.8 hPa
78%
11.7°
4
Windvlaag: 3.2 m/s
43%
04:00
13°
1004.0 hPa
77%
11.6°
4
Windvlaag: 5 m/s
36%
05:00
13°
1004.3 hPa
75%
11.5°
4
Windvlaag: 5.7 m/s
34%
06:00
13°
1004.4 hPa
69%
11.6°
4
Windvlaag: 6.6 m/s
49%
07:00
13°
1004.7 hPa
23%
11.3°
5
Windvlaag: 7 m/s
31%
08:00
14°
1005.0 hPa
58%
10.9°
6
Windvlaag: 8.1 m/s
43%
09:00
14°
1005.3 hPa
15%
9.9°
6
Windvlaag: 8.8 m/s
42%
10:00
15°
1005.6 hPa
53%
9.9°
7
Windvlaag: 6.7 m/s
35%
11:00
15°
1005.8 hPa
14%
10.1°
6
Windvlaag: 6.2 m/s
23%
12:00
15°
1005.8 hPa
14%
10.8°
7
Windvlaag: 7.5 m/s
27%
13:00
15°
1005.8 hPa
14%
11.3°
7
Windvlaag: 7.7 m/s
78%
14:00
16°
1006.0 hPa
15%
12.1°
6
Windvlaag: 7.4 m/s
79%
15:00
17°
1006.1 hPa
23%
12.6°
6
Windvlaag: 7 m/s
86%
16:00
16°
1006.4 hPa
77%
10.2°
6
Windvlaag: 6.3 m/s
86%
17:00
16°
1006.8 hPa 6.2 mm
82%
8.8°
6
Windvlaag: 4.2 m/s
80%
18:00
16°
1006.9 hPa
82%
10.3°
6
Windvlaag: 3.9 m/s
78%
19:00
16°
1007.1 hPa
79%
11.4°
5
Windvlaag: 4.9 m/s
83%
20:00
15°
1007.3 hPa
26%
11.3°
5
Windvlaag: 4.4 m/s
79%
21:00
15°
1007.5 hPa
19%
11.0°
4
Windvlaag: 4.1 m/s
74%
22:00
15°
1006.8 hPa
35%
11.9°
3
Windvlaag: 3.3 m/s
80%
23:00
14°
1006.7 hPa
73%
12.5°
2
Windvlaag: 4.1 m/s
87%
 05:24     21:08    Daglengte: 15:44 Vrijdag 30 Jul
00:00
14°
1006.8 hPa
72%
12.5°
3
Windvlaag: 4.7 m/s
90%
01:00
14°
1006.7 hPa
78%
12.3°
2
Windvlaag: 4.3 m/s
95%
02:00
14°
1006.2 hPa
68%
12.3°
2
Windvlaag: 4 m/s
100%
03:00
13°
1005.8 hPa
75%
12.3°
2
Windvlaag: 3.6 m/s
100%
04:00
13°
1005.4 hPa 10.2 mm
94%
12.2°
2
Windvlaag: 3 m/s
100%
05:00
13°
1005.1 hPa 10.2 mm
100%
12.4°
2
Windvlaag: 2.2 m/s
100%
06:00
13°
1005.1 hPa 10.3 mm
100%
12.3°
1
Windvlaag: 2.4 m/s
99%
07:00
13°
1005.2 hPa 10.7 mm
100%
11.6°
1
Windvlaag: 2.6 m/s
99%
08:00
14°
1004.3 hPa 10.7 mm
100%
11.1°
1
Windvlaag: 4.6 m/s
100%
09:00
14°
1004.4 hPa 10.8 mm
100%
10.8°
1
Windvlaag: 5.4 m/s
100%
10:00
14°
1004.4 hPa 10.7 mm
100%
10.3°
2
Windvlaag: 6.2 m/s
100%
11:00
15°
1004.2 hPa 10.7 mm
100%
10.2°
2
Windvlaag: 6.3 m/s
100%
12:00
16°
1004.2 hPa 10.8 mm
100%
10.6°
2
Windvlaag: 6.3 m/s
99%
13:00
16°
1004.3 hPa 11.0 mm
100%
9.7°
3
Windvlaag: 6.6 m/s
99%
14:00
17°
1004.5 hPa 10.8 mm
100%
9.6°
3
Windvlaag: 6.8 m/s
97%
15:00
18°
1004.7 hPa 10.5 mm
100%
10.3°
3
Windvlaag: 7.1 m/s
96%
16:00
17°
1004.9 hPa 11.4 mm
100%
10.0°
4
Windvlaag: 7.3 m/s
97%
17:00
17°
1005.3 hPa 11.6 mm
100%
10.3°
4
Windvlaag: 7.4 m/s
98%
18:00
17°
1005.5 hPa 10.7 mm
100%
11.0°
3
Windvlaag: 7.6 m/s
99%
19:00
17°
1005.7 hPa 10.7 mm
100%
11.0°
3
Windvlaag: 7.4 m/s
93%
20:00
17°
1006.1 hPa 10.5 mm
100%
11.7°
3
Windvlaag: 7.1 m/s
78%
21:00
16°
1006.6 hPa 10.5 mm
95%
12.9°
2
Windvlaag: 7.5 m/s
97%
22:00
16°
1006.8 hPa 10.5 mm
87%
13.2°
2
Windvlaag: 7.8 m/s
38%
23:00
15°
1007.0 hPa
93%
13.0°
2
Windvlaag: 8.2 m/s
37%
 05:26     21:06    Daglengte: 15:40 Zaterdag 31 Jul
00:00
15°
1007.2 hPa 10.5 mm
89%
12.9°
2
Windvlaag: 7.9 m/s
42%
01:00
15°
1007.2 hPa 10.6 mm
87%
12.9°
2
Windvlaag: 9.1 m/s
70%
Temp/Neerslag /Baro Onweer/Dauwpunt
    Temp Baro Neerslag Dauwpunt Wind Bewolking  
 05:21     21:11    Daglengte: 15:50 Vandaag
07:00
15°
1004.1 hPa 6.6 mm 13.0°
4
58%
10:00
16°
1004.2 hPa 1.6 mm 11.0°
5
71%
13:00
17°
1003.3 hPa 10.3 mm 6.8°
4
83%
16:00
16°
1002.6 hPa 12.5 mm 10.1°
4
75% warningclass
19:00
15°
1002.9 hPa 16.4 mm 9.5°
5
81%
22:00
13°
1003.2 hPa 16.5 mm 9.9°
3
84%
 05:23     21:09    Daglengte: 15:46 Morgen
01:00
13°
1003.3 hPa 16.8 mm 11.8°
4
75%
04:00
13°
1004.0 hPa 5.5 mm 11.6°
4
36%
07:00
13°
1004.7 hPa   11.3°
5
31%
10:00
15°
1005.6 hPa   9.9°
7
35%
13:00
15°
1005.8 hPa   11.3°
7
78%
16:00
16°
1006.4 hPa   10.2°
6
86%
19:00
16°
1007.1 hPa 6.2 mm 11.4°
5
83%
22:00
15°
1006.8 hPa   11.9°
3
80%
 05:24     21:08    Daglengte: 15:44 Vrijdag 30 Jul
01:00
14°
1006.7 hPa   12.3°
2
95%
04:00
13°
1005.4 hPa 10.2 mm 12.2°
2
100%
07:00
13°
1005.2 hPa 31.2 mm 11.6°
1
99%
10:00
14°
1004.4 hPa 32.1 mm 10.3°
2
100%
13:00
16°
1004.3 hPa 32.5 mm 9.7°
3
99%
16:00
17°
1004.9 hPa 32.7 mm 10.0°
4
97%
19:00
17°
1005.7 hPa 32.9 mm 11.0°
3
93%
22:00
16°
1006.8 hPa 31.5 mm 13.2°
2
38%
 05:26     21:06    Daglengte: 15:40 Zaterdag 31 Jul
01:00
15°
1007.2 hPa 31.5 mm 12.9°
2
70%
04:00
14°
1007.1 hPa 18.4 mm 12.8°
2
1%
07:00
14°
1007.6 hPa 18.6 mm 13.2°
2
1%
10:00
16°
1008.0 hPa 18.9 mm 13.4°
4
1%
13:00
17°
1008.6 hPa 19.1 mm 12.6°
4
1%
16:00
19°
1008.2 hPa 19.3 mm 11.4°
5
1%
19:00
17°
1008.5 hPa 19.3 mm 12.2°
4
1%
22:00
14°
1009.0 hPa 19.3 mm 11.5°
3
0%
 05:28     21:04    Daglengte: 15:36 Zondag 01 Aug
01:00
12°
1009.1 hPa 19.3 mm 9.3°
2
1%
04:00
11°
1009.1 hPa 19.3 mm 8.8°
2
1%
07:00
13°
1009.6 hPa 19.4 mm 9.0°
1
1%
10:00
14°
1010.3 hPa 19.4 mm 9.0°
2
1%
13:00
16°
1011.2 hPa 19.4 mm 9.3°
2
1%
16:00
17°
1011.5 hPa 19.6 mm 9.8°
1
1%
19:00
17°
1011.6 hPa 19.8 mm 10.2°
1
1%
22:00
14°
1012.9 hPa 20.3 mm 11.3°
1
1%
 05:29     21:02    Daglengte: 15:33 Maandag 02 Aug
01:00
13°
1013.3 hPa 20.7 mm 11.6°
1
1%
04:00
12°
1014.0 hPa 20.8 mm 11.6°
1
1%
07:00
12°
1014.6 hPa 20.8 mm 11.5°
1
1%
10:00
14°
1015.1 hPa 21.3 mm 11.5°
1
1%
13:00
18°
1014.8 hPa 22.0 mm 10.9°
1
1%
16:00
20°
1013.9 hPa 22.4 mm 8.8°
1
1%
19:00
17°
1014.0 hPa 22.4 mm 9.0°
2
1%
22:00
14°
1014.5 hPa 22.4 mm 9.8°
1
0%
 05:31     21:00    Daglengte: 15:29 Dinsdag 03 Aug
01:00
13°
1014.6 hPa 22.4 mm 9.3°
1
0%
04:00
12°
1013.5 hPa 22.4 mm 9.0°
1
1%
07:00
13°
1013.6 hPa 22.4 mm 9.3°
0
1%
10:00
17°
1012.7 hPa 22.4 mm 9.4°
1
1%
13:00
20°
1011.1 hPa 22.4 mm 9.7°
3
1%
16:00
22°
1009.5 hPa 22.4 mm 7.3°
3
1%
19:00
21°
1008.7 hPa 22.4 mm 8.2°
2
1%
22:00
17°
1009.4 hPa 22.4 mm 9.0°
1
1%
 05:33     20:58    Daglengte: 15:25 Woensdag 04 Aug
01:00
16°
1008.4 hPa 22.4 mm 9.0°
2
1%
04:00
15°
1007.1 hPa   10.8°
3
1%
07:00
15°
1006.0 hPa 44.9 mm 11.4°
3
1%
13:00
18°
1004.3 hPa 47.2 mm 14.5°
3
1%
19:00
18°
1002.8 hPa 56.9 mm 15.0°
2
1%
 05:34     20:57    Daglengte: 15:23 Donderdag 05 Aug
01:00
14°
1002.7 hPa 60.0 mm 12.8°
0
0%
07:00
13°
1001.7 hPa 60.0 mm 11.8°
1
1%
13:00
18°
1001.1 hPa 61.4 mm 13.3°
4
1%
19:00
18°
1000.1 hPa 65.8 mm 10.9°
3
1%
 05:36     20:55    Daglengte: 15:19 Vrijdag 06 Aug
01:00
13°
999.8 hPa 66.3 mm 10.9°
2
1%
07:00
13°
998.2 hPa 66.3 mm 11.2°
2
1%
13:00
21°
997.0 hPa 66.5 mm 10.6°
1
1%
19:00
17°
997.6 hPa 72.3 mm 13.8°
5
1%
 05:38     20:53    Daglengte: 15:15 Zaterdag 07 Aug
01:00
13°
1006.7 hPa 0.3 mm 10.8°
2
64%
07:00
13°
1006.6 hPa 0.8 mm 10.9°
2
65%
13:00
18°
1006.9 hPa 1.2 mm 11.4°
4
74%
19:00
17°
1007.0 hPa 1.8 mm 11.6°
3
67%
 05:39     20:51    Daglengte: 15:12 Zondag 08 Aug
01:00
13°
1007.9 hPa 1.1 mm 11.0°
2
66%
07:00
13°
1007.6 hPa 1.7 mm 10.9°
2
69%
13:00
17°
1008.5 hPa 2.0 mm 11.8°
3
71%
19:00
17°
1009.2 hPa 1.7 mm 11.7°
3
67%
 05:41     20:49    Daglengte: 15:08 Maandag 09 Aug
01:00
13°
1011.0 hPa 1.8 mm 10.6°
2
53%
07:00
13°
1011.4 hPa 1.2 mm 10.9°
2
58%
13:00
18°
1012.7 hPa   11.5°
4
65%
19:00
17°
1013.6 hPa 1.3 mm 11.4°
3
64%
 05:43     20:47    Daglengte: 15:04 Dinsdag 10 Aug
01:00
13°
1016.0 hPa 0.4 mm 10.8°
2
57%
07:00
13°
1016.4 hPa 0.7 mm 10.9°
2
63%
13:00
18°
1017.2 hPa 0.8 mm 11.5°
3
68%
19:00
17°
1017.5 hPa 0.9 mm 11.3°
4
59%
 05:44     20:45    Daglengte: 15:01 Woensdag 11 Aug
01:00
13°
1018.8 hPa 0.4 mm 10.6°
2
45%
07:00
13°
1018.3 hPa 0.2 mm 10.8°
2
54%
13:00
19°
1017.6 hPa 0.4 mm 11.7°
3
64%
19:00
18°
1016.4 hPa 1.1 mm 12.3°
3
68%
 05:46     20:43    Daglengte: 14:57 Donderdag 12 Aug
01:00
14°
1016.9 hPa 0.9 mm 11.9°
2
65%
  CAPE Lifted Index Hail Supercell Tornado SRH 3km CL BTM PRES CL TOP PRES Swiss DWD icon SMHI TS
 05:21     21:11    Daglengte: 15:50 Vandaag
05:00 319 J/kg -0.9 K 0 % 0 % 0 % 0 m²/s² 0 0 -0.69 61
06:00 174 J/kg -0.2 K 0 % 0 % 0 % 0 m²/s² 0 0 0.58 61
07:00 65 J/kg 0.8 K 0 % 0 % 0 % 0 m²/s² 0 0 2.51 80
08:00 90 J/kg 0.7 K 0 % 0 % 0 % 0 m²/s² 0 0 2.11 80
09:00 209 J/kg -0.5 K 0 % 0 % 0 % 0 m²/s² 0 0 0.91 80
10:00 378 J/kg -1.4 K 0 % 0 % 0 % 0 m²/s² 0 0 -0.98 3
11:00 93 J/kg -0.2 K 0 % 0 % 0 % 0 m²/s² 0 0 0.55 3
12:00 313 J/kg -1.1 K 0 % 0 % 0 % 0 m²/s² 0 0 0.64 80
13:00 363 J/kg -1.7 K 0 % 0 % 0 % 0 m²/s² 0 0 -0.08 80
14:00 363 J/kg -2.1 K 0 % 0 % 0 % 0 m²/s² 0 0 -0.06 95
15:00 219 J/kg -0.2 K 0 % 0 % 0 % 0 m²/s² 0 0 0.22 80
16:00 139 J/kg -1.6 K 0 % 0 % 0 % 0 m²/s² 0 0 -1.48 95
17:00 473 J/kg -2.8 K 0 % 0 % 0 % 0 m²/s² 0 0 -2.65 80
18:00 448 J/kg -2.4 K 0 % 0 % 0 % 0 m²/s² 0 0 -1.98 95
19:00 345 J/kg -1.8 K 0 % 0 % 0 % 0 m²/s² 0 0 -0.9 80
20:00 401 J/kg -2.1 K 0 % 0 % 0 % 0 m²/s² 0 0 -1.47 80
21:00 159 J/kg -1.0 K 0 % 0 % 0 % 0 m²/s² 0 0 -0.67 80
22:00 342 J/kg -2.0 K 0 % 0 % 0 % 0 m²/s² 0 0 -1.58 80
23:00 382 J/kg -2.2 K 0 % 0 % 0 % 0 m²/s² 0 0 -1.78 80
 05:23     21:09    Daglengte: 15:46 Morgen
00:00 385 J/kg -2.1 K 0 % 0 % 0 % 0 m²/s² 0 0 -1.62 80
01:00 342 J/kg -1.8 K 0 % 0 % 0 % 0 m²/s² 0 0 -0.81 3
02:00 201 J/kg -1.0 K 0 % 0 % 0 % 0 m²/s² 0 0 0.29 3
03:00 127 J/kg -0.6 K 0 % 0 % 0 % 0 m²/s² 0 0 0.6 80
04:00 314 J/kg -1.4 K 0 % 0 % 0 % 0 m²/s² 0 0 -0.23 80
05:00 154 J/kg -0.5 K 0 % 0 % 0 % 0 m²/s² 0 0 1.3 80
06:00 54 J/kg 0.0 K 0 % 0 % 0 % 0 m²/s² 0 0 2.82 3
07:00 23 J/kg 1.7 K 0 % 0 % 0 % 0 m²/s² 0 0 5.12 2
08:00 13 J/kg 3.2 K 0 % 0 % 0 % 0 m²/s² 0 0 6.29 2
09:00 3 J/kg 2.5 K 0 % 0 % 0 % 0 m²/s² 0 0 5.14 2
10:00 9 J/kg 3.2 K 0 % 0 % 0 % 0 m²/s² 0 0 5.54 2
11:00 6 J/kg 3.3 K 0 % 0 % 0 % 0 m²/s² 0 0 5.73 2
12:00 4 J/kg 3.6 K 0 % 0 % 0 % 0 m²/s² 0 0 4.83 2
13:00 2 J/kg 3.3 K 0 % 0 % 0 % 0 m²/s² 0 0 4.14 3
14:00 37 J/kg 2.3 K 0 % 0 % 0 % 0 m²/s² 0 0 3.17 3
15:00 27 J/kg 1.9 K 0 % 0 % 0 % 0 m²/s² 0 0 2.47 3
16:00 46 J/kg 1.1 K 0 % 0 % 0 % 0 m²/s² 0 0 1.7 3
17:00 117 J/kg 0.1 K 0 % 0 % 0 % 0 m²/s² 0 0 0.88 61
18:00 57 J/kg 0.6 K 0 % 0 % 0 % 0 m²/s² 0 0 1.35 3
19:00 92 J/kg 0.3 K 0 % 0 % 0 % 0 m²/s² 0 0 0.99 3
20:00 78 J/kg 0.4 K 0 % 0 % 0 % 0 m²/s² 0 0 1.48 3
21:00 70 J/kg 0.7 K 0 % 0 % 0 % 0 m²/s² 0 0 1.84 3
22:00 82 J/kg 0.4 K 0 % 0 % 0 % 0 m²/s² 0 0 1.42 3
23:00 116 J/kg -0.1 K 0 % 0 % 0 % 0 m²/s² 0 0 0.53 3
 05:24     21:08    Daglengte: 15:44 Vrijdag 30 Jul
00:00 83 J/kg 0.3 K 0 % 0 % 0 % 0 m²/s² 0 0 0.84 3
01:00 72 J/kg 0.4 K 0 % 0 % 0 % 0 m²/s² 0 0 0.91 3
02:00 73 J/kg 0.1 K 0 % 0 % 0 % 0 m²/s² 0 0 0.7 3
03:00 102 J/kg 0.0 K 0 % 0 % 0 % 0 m²/s² 0 0 0.6 3
04:00 100 J/kg 0.1 K 0 % 0 % 0 % 0 m²/s² 0 0 0.64 80
05:00 93 J/kg 0.6 K 0 % 0 % 0 % 0 m²/s² 0 0 1.2 3
06:00 77 J/kg 0.7 K 0 % 0 % 0 % 0 m²/s² 0 0 1.3 61
07:00 86 J/kg 0.5 K 0 % 0 % 0 % 0 m²/s² 0 0 1.19 61
08:00 152 J/kg -0.1 K 0 % 0 % 0 % 0 m²/s² 0 0 0.71 61
09:00 262 J/kg -0.7 K 0 % 0 % 0 % 0 m²/s² 0 0 0.23 61
10:00 339 J/kg -1.0 K 0 % 0 % 0 % 0 m²/s² 0 0 -0.28 61
11:00 296 J/kg -0.8 K 0 % 0 % 0 % 0 m²/s² 0 0 0.07 61
12:00 322 J/kg -0.9 K 0 % 0 % 0 % 0 m²/s² 0 0 -0.03 61
13:00 244 J/kg -0.6 K 0 % 0 % 0 % 0 m²/s² 0 0 0.36 61
14:00 185 J/kg -0.4 K 0 % 0 % 0 % 0 m²/s² 0 0 0.56 80
15:00 183 J/kg -0.6 K 0 % 0 % 0 % 0 m²/s² 0 0 0.48 61
16:00 153 J/kg -0.4 K 0 % 0 % 0 % 0 m²/s² 0 0 0.77 61
17:00 104 J/kg -0.1 K 0 % 0 % 0 % 0 m²/s² 0 0 1.13 61
18:00 76 J/kg 0.3 K 0 % 0 % 0 % 0 m²/s² 0 0 1.53 61
19:00 45 J/kg 0.8 K 0 % 0 % 0 % 0 m²/s² 0 0 2.03 61
20:00 36 J/kg 1.0 K 0 % 0 % 0 % 0 m²/s² 0 0 2.23 3
21:00 57 J/kg 0.9 K 0 % 0 % 0 % 0 m²/s² 0 0 2.13 3
22:00 78 J/kg 0.7 K 0 % 0 % 0 % 0 m²/s² 0 0 1.78 3
23:00 69 J/kg 1.2 K 0 % 0 % 0 % 0 m²/s² 0 0 2.34 3
 05:26     21:06    Daglengte: 15:40 Zaterdag 31 Jul
00:00 78 J/kg 1.0 K 0 % 0 % 0 % 0 m²/s² 0 0 2.17 3
01:00 62 J/kg 1.5 K 0 % 0 % 0 % 0 m²/s² 0 0 2.58 3
Temp Baro Wind Neerslag
  EWN Forecast EWN WRFDA DWD ICON FMI HIRLAM MET Norway GFS
 05:21     21:11    Daglengte: 15:50 Vandaag
07:00 14.7° 1004.1 hPa 4.4 m/s 6.6 mm 14.9° 1003.1 hPa 4.2 m/s 17.7 mm 14.7° 1004.1 hPa 3.3 m/s 2.2 mm 14.8° 1004.8 hPa 4.7 m/s 0.0 mm 13.7° 1004.0 hPa 3.4 m/s
10:00 15.8° 1004.2 hPa 4.9 m/s 1.6 mm 16.1° 1003.2 hPa 4.5 m/s 18.6 mm 15.8° 1004.2 hPa 3.4 m/s 1.0 mm 16.1° 1005.1 hPa 5.6 m/s 0.0 mm 15.8° 1003.7 hPa 3.5 m/s
13:00 17.0° 1003.3 hPa 4.2 m/s 10.3 mm 17.9° 1002.2 hPa 4.1 m/s 44.6 mm 16.8° 1003.1 hPa 2.6 m/s 1.4 mm 19.1° 1004.4 hPa 6.0 m/s 0.0 mm 17.0° 1003.0 hPa 3.6 m/s
16:00 16.1° 1002.6 hPa 3.8 m/s 12.5 mm 13.9° 1002.5 hPa 4.5 m/s 48.9 mm 15.9° 1002.5 hPa 3.3 m/s 3.5 mm 18.9° 1003.6 hPa 4.9 m/s 0.0 mm 16.9° 1002.4 hPa 4.0 m/s
19:00 14.7° 1002.9 hPa 5.1 m/s 16.4 mm 15.2° 1002.1 hPa 6.4 m/s 67.1 mm 14.3° 1002.9 hPa 3.7 m/s 3.2 mm 17.5° 1003.5 hPa 4.9 m/s 0.0 mm 14.6° 1002.8 hPa 4.5 m/s
22:00 13.4° 1003.2 hPa 2.7 m/s 16.5 mm 14.3° 1002.3 hPa 4.7 m/s 73.3 mm 13.1° 1003.1 hPa 4.2 m/s 1.3 mm 15.6° 1004.1 hPa 1.9 m/s 0.0 mm 12.1° 1003.6 hPa 4.3 m/s
 05:23     21:09    Daglengte: 15:46 Morgen
01:00 13.1° 1003.3 hPa 4.3 m/s 16.8 mm 13.7° 1002.3 hPa 5.4 m/s 77.0 mm 13.1° 1003.0 hPa 4.1 m/s 0.7 mm 13.3° 1004.6 hPa 3.8 m/s 0.0 mm 11.8° 1003.2 hPa 4.9 m/s
04:00 12.6° 1004.0 hPa 3.9 m/s 5.5 mm 13.4° 1002.7 hPa 5.0 m/s 79.3 mm 13.0° 1004.2 hPa 3.5 m/s 0.9 mm 12.5° 1004.5 hPa 3.5 m/s 0.0 mm 12.0° 1004.1 hPa 4.7 m/s
07:00 12.8° 1004.7 hPa 4.6 m/s 0.0 mm 13.3° 1003.2 hPa 6.8 m/s 80.3 mm 13.3° 1004.9 hPa 4.2 m/s 0.5 mm 12.7° 1005.4 hPa 3.0 m/s 0.0 mm 12.0° 1004.7 hPa 4.7 m/s
10:00 14.9° 1005.6 hPa 6.5 m/s 0.0 mm 14.9° 1003.4 hPa 8.0 m/s 80.5 mm 15.6° 1005.9 hPa 5.2 m/s 0.0 mm 15.2° 1005.9 hPa 6.4 m/s 0.0 mm 15.0° 1004.8 hPa 5.5 m/s
13:00 15.1° 1005.8 hPa 6.7 m/s 0.0 mm 14.1° 1004.0 hPa 7.2 m/s 81.9 mm 17.6° 1005.7 hPa 6.6 m/s 0.0 mm 15.1° 1006.4 hPa 5.6 m/s 0.0 mm 14.4° 1005.5 hPa 5.7 m/s
16:00 16.1° 1006.4 hPa 6.4 m/s 0.0 mm 16.3° 1004.7 hPa 6.4 m/s 83.6 mm 16.0° 1006.2 hPa 5.5 m/s 0.0 mm 18.7° 1006.9 hPa 7.0 m/s 0.0 mm 14.9° 1005.8 hPa 5.0 m/s
19:00 15.6° 1007.1 hPa 5.4 m/s 6.2 mm 17.4° 1005.8 hPa 6.1 m/s 84.9 mm 15.2° 1006.6 hPa 3.7 m/s 0.2 mm 17.4° 1008.6 hPa 7.0 m/s 0.0 mm 16.4° 1005.9 hPa 4.4 m/s
22:00 14.7° 1006.8 hPa 2.7 m/s 0.0 mm 16.0° 1006.5 hPa 4.5 m/s 85.4 mm 15.0° 1006.7 hPa 2.6 m/s 0.0 mm 13.8° 1007.2 hPa 2.4 m/s
 05:24     21:08    Daglengte: 15:44 Vrijdag 30 Jul
01:00 13.8° 1006.7 hPa 2.2 m/s 0.0 mm 14.8° 1007.0 hPa 3.2 m/s 88.0 mm 13.9° 1005.9 hPa 2.0 m/s 0.1 mm 13.0° 1007.6 hPa 1.5 m/s
04:00 13.2° 1005.4 hPa 1.7 m/s 10.2 mm 14.5° 1006.2 hPa 2.0 m/s 90.0 mm 13.2° 1004.7 hPa 1.8 m/s 0.2 mm 12.2° 1007.4 hPa 1.6 m/s
07:00 13.0° 1005.2 hPa 1.4 m/s 31.2 mm 14.8° 1006.4 hPa 1.7 m/s 90.7 mm 13.0° 1003.8 hPa 0.2 m/s 1.4 mm 13.3° 1007.4 hPa 1.5 m/s
10:00 14.4° 1004.4 hPa 1.8 m/s 32.1 mm 17.5° 1006.8 hPa 4.4 m/s 91.5 mm 13.7° 1003.7 hPa 1.2 m/s 2.3 mm 16.8° 1007.2 hPa 2.2 m/s
13:00 16.4° 1004.3 hPa 2.6 m/s 32.5 mm 19.3° 1006.5 hPa 5.6 m/s 92.7 mm 15.7° 1003.8 hPa 1.8 m/s 2.4 mm 19.6° 1006.0 hPa 2.9 m/s
16:00 17.0° 1004.9 hPa 4.3 m/s 32.7 mm 19.5° 1006.7 hPa 6.3 m/s 92.9 mm 16.4° 1004.5 hPa 3.7 m/s 2.6 mm 19.5° 1005.4 hPa 4.5 m/s
19:00 16.8° 1005.7 hPa 3.1 m/s 32.9 mm 18.1° 1007.4 hPa 5.5 m/s 92.9 mm 16.5° 1005.3 hPa 2.5 m/s 2.9 mm 17.6° 1006.0 hPa 4.8 m/s
22:00 15.7° 1006.8 hPa 1.9 m/s 31.5 mm 16.2° 1007.6 hPa 4.1 m/s 93.0 mm 15.6° 1006.6 hPa 1.3 m/s 0.8 mm 14.6° 1006.8 hPa 3.7 m/s
 05:26     21:06    Daglengte: 15:40 Zaterdag 31 Jul
01:00 14.9° 1007.2 hPa 1.9 m/s 31.5 mm 15.6° 1008.0 hPa 4.2 m/s 93.5 mm 14.7° 1007.0 hPa 1.3 m/s 0.4 mm 14.1° 1007.4 hPa 2.6 m/s
04:00 14.1° 1007.1 hPa 2.4 m/s 18.4 mm 14.1° 1007.1 hPa 2.4 m/s 18.4 mm
07:00 14.5° 1007.6 hPa 2.4 m/s 18.6 mm 14.5° 1007.6 hPa 2.4 m/s 18.6 mm
10:00 16.0° 1008.0 hPa 4.1 m/s 18.9 mm 16.0° 1008.0 hPa 4.1 m/s 18.9 mm
13:00 17.2° 1008.6 hPa 4.3 m/s 19.1 mm 17.2° 1008.6 hPa 4.3 m/s 19.1 mm
16:00 18.8° 1008.2 hPa 5.0 m/s 19.3 mm 18.8° 1008.2 hPa 5.0 m/s 19.3 mm
19:00 17.0° 1008.5 hPa 4.2 m/s 19.3 mm 17.0° 1008.5 hPa 4.2 m/s 19.3 mm
22:00 14.1° 1009.0 hPa 2.6 m/s 19.3 mm 14.1° 1009.0 hPa 2.6 m/s 19.3 mm
 05:28     21:04    Daglengte: 15:36 Zondag 01 Aug
01:00 12.5° 1009.1 hPa 2.3 m/s 19.3 mm 12.5° 1009.1 hPa 2.3 m/s 19.3 mm
04:00 11.2° 1009.1 hPa 1.8 m/s 19.3 mm 11.2° 1009.1 hPa 1.8 m/s 19.3 mm
07:00 12.7° 1009.6 hPa 1.5 m/s 19.4 mm 12.7° 1009.6 hPa 1.5 m/s 19.4 mm
10:00 14.1° 1010.3 hPa 2.3 m/s 19.4 mm 14.1° 1010.3 hPa 2.3 m/s 19.4 mm
13:00 15.8° 1011.2 hPa 1.6 m/s 19.4 mm 15.8° 1011.2 hPa 1.6 m/s 19.4 mm
16:00 17.1° 1011.5 hPa 1.0 m/s 19.6 mm 17.1° 1011.5 hPa 1.0 m/s 19.6 mm
19:00 17.2° 1011.6 hPa 1.0 m/s 19.8 mm 17.2° 1011.6 hPa 1.0 m/s 19.8 mm
22:00 13.8° 1012.9 hPa 1.5 m/s 20.3 mm 13.8° 1012.9 hPa 1.5 m/s 20.3 mm
 05:29     21:02    Daglengte: 15:33 Maandag 02 Aug
01:00 13.1° 1013.3 hPa 1.3 m/s 20.7 mm 13.1° 1013.3 hPa 1.3 m/s 20.7 mm
04:00 12.4° 1014.0 hPa 1.2 m/s 20.8 mm 12.4° 1014.0 hPa 1.2 m/s 20.8 mm
07:00 12.4° 1014.6 hPa 0.9 m/s 20.8 mm 12.4° 1014.6 hPa 0.9 m/s 20.8 mm
10:00 14.3° 1015.1 hPa 0.9 m/s 21.3 mm 14.3° 1015.1 hPa 0.9 m/s 21.3 mm
13:00 18.0° 1014.8 hPa 1.4 m/s 22.0 mm 18.0° 1014.8 hPa 1.4 m/s 22.0 mm
16:00 20.2° 1013.9 hPa 0.8 m/s 22.4 mm 20.2° 1013.9 hPa 0.8 m/s 22.4 mm
19:00 17.3° 1014.0 hPa 2.3 m/s 22.4 mm 17.3° 1014.0 hPa 2.3 m/s 22.4 mm
22:00 14.1° 1014.5 hPa 1.1 m/s 22.4 mm 14.1° 1014.5 hPa 1.1 m/s 22.4 mm
 05:31     21:00    Daglengte: 15:29 Dinsdag 03 Aug
01:00 12.7° 1014.6 hPa 0.8 m/s 22.4 mm 12.7° 1014.6 hPa 0.8 m/s 22.4 mm
04:00 12.1° 1013.5 hPa 0.6 m/s 22.4 mm 12.1° 1013.5 hPa 0.6 m/s 22.4 mm
07:00 13.2° 1013.6 hPa 0.0 m/s 22.4 mm 13.2° 1013.6 hPa 0.0 m/s 22.4 mm
10:00 16.9° 1012.7 hPa 1.3 m/s 22.4 mm 16.9° 1012.7 hPa 1.3 m/s 22.4 mm
13:00 19.8° 1011.1 hPa 2.5 m/s 22.4 mm 19.8° 1011.1 hPa 2.5 m/s 22.4 mm
16:00 22.4° 1009.5 hPa 3.2 m/s 22.4 mm 22.4° 1009.5 hPa 3.2 m/s 22.4 mm
19:00 21.0° 1008.7 hPa 2.4 m/s 22.4 mm 21.0° 1008.7 hPa 2.4 m/s 22.4 mm
22:00 16.5° 1009.4 hPa 0.9 m/s 22.4 mm 16.5° 1009.4 hPa 0.9 m/s 22.4 mm
 05:33     20:58    Daglengte: 15:25 Woensdag 04 Aug
01:00 16.0° 1008.4 hPa 2.1 m/s 22.4 mm 16.0° 1008.4 hPa 2.1 m/s 22.4 mm
04:00 15.0° 1007.1 hPa 2.8 m/s 22.4 mm 15.0° 1007.1 hPa 2.8 m/s 22.4 mm
07:00 15.0° 1006.0 hPa 3.0 m/s 22.5 mm 15.0° 1006.0 hPa 3.0 m/s 22.5 mm
13:00 18.0° 1004.3 hPa 3.3 m/s 24.5 mm 18.0° 1004.3 hPa 3.3 m/s 24.5 mm
19:00 17.8° 1002.8 hPa 1.9 m/s 29.8 mm 17.8° 1002.8 hPa 1.9 m/s 29.8 mm
 05:34     20:57    Daglengte: 15:23 Donderdag 05 Aug
01:00 13.7° 1002.7 hPa 0.3 m/s 30.0 mm 13.7° 1002.7 hPa 0.3 m/s 30.0 mm
07:00 12.8° 1001.7 hPa 1.4 m/s 30.0 mm 12.8° 1001.7 hPa 1.4 m/s 30.0 mm
13:00 18.3° 1001.1 hPa 3.7 m/s 31.3 mm 18.3° 1001.1 hPa 3.7 m/s 31.3 mm
19:00 18.4° 1000.1 hPa 3.1 m/s 33.1 mm 18.4° 1000.1 hPa 3.1 m/s 33.1 mm
 05:36     20:55    Daglengte: 15:19 Vrijdag 06 Aug
01:00 13.2° 999.8 hPa 2.2 m/s 33.1 mm 13.2° 999.8 hPa 2.2 m/s 33.1 mm
07:00 13.0° 998.2 hPa 1.5 m/s 33.1 mm 13.0° 998.2 hPa 1.5 m/s 33.1 mm
13:00 21.1° 997.0 hPa 0.6 m/s 33.3 mm 21.1° 997.0 hPa 0.6 m/s 33.3 mm
19:00 16.7° 997.6 hPa 4.5 m/s 37.2 mm 16.7° 997.6 hPa 4.5 m/s 37.2 mm
 05:38     20:53    Daglengte: 15:15 Zaterdag 07 Aug
01:00 13.5° 1006.7 hPa 2.0 m/s 0.3 mm
07:00 13.2° 1006.6 hPa 2.0 m/s 0.8 mm
13:00 17.8° 1006.9 hPa 3.7 m/s 1.2 mm
19:00 16.6° 1007.0 hPa 3.0 m/s 1.8 mm
 05:39     20:51    Daglengte: 15:12 Zondag 08 Aug
01:00 13.3° 1007.9 hPa 2.1 m/s 1.1 mm
07:00 12.9° 1007.6 hPa 2.0 m/s 1.7 mm
13:00 17.5° 1008.5 hPa 3.4 m/s 2.0 mm
19:00 17.2° 1009.2 hPa 3.1 m/s 1.7 mm
 05:41     20:49    Daglengte: 15:08 Maandag 09 Aug
01:00 13.3° 1011.0 hPa 2.0 m/s 1.8 mm
07:00 13.1° 1011.4 hPa 2.0 m/s 1.2 mm
13:00 18.3° 1012.7 hPa 3.9 m/s 0.0 mm
19:00 17.1° 1013.6 hPa 3.2 m/s 1.3 mm
 05:43     20:47    Daglengte: 15:04 Dinsdag 10 Aug
01:00 13.5° 1016.0 hPa 1.8 m/s 0.4 mm
07:00 13.2° 1016.4 hPa 2.0 m/s 0.7 mm
13:00 18.3° 1017.2 hPa 3.5 m/s 0.8 mm
19:00 17.4° 1017.5 hPa 3.5 m/s 0.9 mm